Wind_Speed
16 16 15 15 15 15 15 14 14 14 13 12 11 9 8 9 8 7 7 5 1 3 4 8 9 8 3 7 7 4 5 3 4 8 5 19 6 16 2 16 4 6 11 26 29
17 17 16 16 15 15 14 14 14 14 12 11 10 9 8 9 9 10 8 7 6 3 4 6 5 8 8 5 4 5 3 4 3 7 13 19 19 20 6 15 4 10 23 28 29
18 18 18 17 16 15 14 13 13 14 12 10 9 9 8 7 7 6 8 9 10 5 4 5 5 5 6 2 1 3 4 4 8 17 30 21 13 9 21 5 13 30 29 32 29
18 18 18 18 18 17 15 13 13 13 12 11 8 8 7 4 5 5 7 9 11 8 7 4 3 1 3 2 1 2 8 12 10 19 21 20 22 10 21 8 24 28 32 32 31
18 18 19 18 18 17 16 14 13 13 11 10 8 7 6 5 6 4 6 9 11 10 9 6 6 5 1 1 3 3 4 5 14 23 21 22 20 11 21 8 27 28 32 32 30
19 19 19 19 19 18 16 14 13 12 11 10 8 6 6 3 6 6 6 8 9 10 10 10 2 1 1 3 3 1 8 4 10 6 10 6 7 18 19 24 28 28 33 33 30
20 20 20 20 20 18 16 15 14 11 11 10 7 7 9 10 6 8 9 5 5 7 9 7 6 2 2 3 3 6 3 6 9 7 5 8 4 3 28 31 31 29 32 34 32
20 20 20 20 20 18 16 14 15 13 9 7 7 7 7 6 17 17 11 12 10 10 10 7 3 3 2 7 6 5 4 3 2 2 3 6 4 8 27 31 27 27 30 33 32
20 20 19 19 19 17 13 15 11 7 5 6 7 5 7 9 13 16 17 13 7 12 10 9 6 4 6 3 3 6 0 3 1 4 2 4 2 12 24 25 24 26 31 33 35
21 20 19 18 18 16 11 10 6 2 5 4 6 4 5 4 0 9 20 17 10 5 4 7 5 4 3 4 5 5 3 4 4 3 5 3 4 16 27 24 26 28 31 31 31
21 20 19 17 15 12 9 2 5 3 13 11 12 10 14 5 3 3 15 16 13 2 3 3 4 7 10 9 4 4 2 3 5 2 1 2 3 15 26 25 24 27 32 33 34
22 21 19 16 14 5 8 7 10 10 14 17 21 22 22 19 6 3 14 9 7 5 4 5 6 7 6 5 5 5 3 3 3 6 2 3 1 8 22 29 33 33 35 37 34
22 21 19 14 10 0 5 6 9 9 5 11 7 12 19 13 11 11 11 8 4 4 4 6 6 11 6 5 6 3 7 5 5 7 3 3 5 6 7 16 23 29 37 36 35
22 21 19 13 3 3 4 3 8 9 4 6 4 4 11 10 5 20 17 9 1 9 6 5 4 7 6 5 6 7 10 7 8 5 4 5 5 7 6 7 14 24 31 35 34
21 21 18 14 11 5 6 5 8 2 3 1 2 2 13 11 2 2 22 13 8 6 6 8 1 3 4 9 9 11 11 13 8 4 3 2 2 8 4 15 16 20 31 37 35
21 20 20 15 10 4 5 6 3 5 4 3 2 4 4 3 2 5 7 10 6 5 3 8 1 4 8 3 15 4 8 7 6 3 2 7 7 10 8 20 19 15 29 40 37
22 19 21 14 5 4 2 1 5 3 5 2 2 1 3 5 3 6 6 6 7 4 4 5 4 3 5 4 2 7 8 3 3 2 6 6 4 17 8 7 17 26 30 42 39
24 20 17 10 8 6 1 4 2 3 5 5 4 2 4 2 3 2 6 5 3 4 4 6 5 7 4 8 9 8 9 6 7 5 5 6 7 10 6 13 20 26 37 43 43
24 18 7 4 9 9 4 3 7 6 3 7 6 5 2 2 3 5 4 5 9 9 8 5 5 5 3 2 8 4 2 4 8 3 3 4 7 10 5 6 11 18 30 37 47
23 14 3 7 6 12 4 5 4 4 4 4 2 2 1 4 2 2 2 5 7 12 7 7 0 4 4 3 1 5 8 4 3 5 4 5 5 6 5 7 8 11 25 34 43
17 4 5 7 13 3 3 6 5 7 8 3 2 3 6 2 1 3 6 8 5 3 7 6 3 5 0 4 6 2 0 6 5 4 6 2 6 8 11 11 17 16 28 37 42
10 3 6 11 1 1 3 5 5 3 9 7 4 8 3 2 4 3 3 6 5 13 11 8 5 4 11 3 2 4 8 6 5 4 1 4 7 3 11 11 19 25 32 34 39
19 6 5 13 1 2 5 4 5 4 5 3 4 2 2 1 2 2 3 7 14 5 11 9 1 2 10 7 3 4 3 6 6 3 6 5 7 5 5 6 16 26 28 37 34
7 4 2 9 2 3 4 5 4 7 8 7 7 5 3 0 1 2 4 4 8 6 12 7 4 7 7 8 3 3 2 5 7 4 5 7 7 8 8 8 12 22 30 36 39
5 2 4 4 2 3 2 3 5 6 5 7 5 5 5 5 1 3 2 5 4 13 5 4 2 4 3 5 3 3 5 8 8 7 7 9 8 9 11 12 24 30 31 34 39
5 6 7 7 12 4 3 1 3 5 4 6 4 7 5 5 7 6 2 1 2 6 4 5 1 4 2 3 3 4 6 7 5 3 6 2 8 5 5 11 9 29 30 31 38
4 5 5 6 5 2 2 4 4 8 7 14 9 2 4 3 5 7 6 4 3 1 3 3 3 3 5 4 2 4 4 3 5 6 7 6 12 4 4 9 21 28 35 35 33
Wind_Direction
346 346 344 343 343 344 343 342 340 339 336 332 328 315 291 280 278 267 262 255 186 86 127 96 71 110 232 44 61 65 61 107 154 161 139 152 123 150 96 150 160 152 166 158 158
343 342 340 338 339 341 340 339 336 335 332 331 327 320 300 282 274 252 241 246 245 289 191 185 336 33 63 45 36 69 90 240 194 148 150 162 141 162 124 160 149 136 149 155 159
339 339 337 336 337 338 338 335 331 330 327 329 325 323 308 295 288 247 227 238 248 261 240 224 304 30 76 94 79 144 187 188 177 149 157 155 152 165 142 190 181 154 159 164 166
335 334 334 333 334 334 334 331 326 324 322 324 322 323 313 276 188 174 187 204 221 251 254 288 305 89 85 159 177 232 232 152 149 158 156 161 156 149 167 193 181 163 166 169 175
334 332 331 331 330 329 330 329 323 317 315 315 312 318 319 261 240 140 120 175 194 225 247 276 301 331 41 299 82 59 342 30 156 166 172 157 174 168 196 171 167 171 173 176 186
332 331 331 330 328 327 327 327 318 310 306 305 300 301 301 270 232 203 155 158 187 206 231 227 284 189 88 37 53 60 87 69 71 160 158 148 144 144 198 164 161 169 179 185 191
329 330 330 330 328 325 325 327 315 304 296 295 281 283 274 234 189 182 178 174 179 181 221 235 256 238 129 10 24 346 61 57 52 21 103 87 7 182 161 168 169 172 183 190 200
328 329 329 328 327 324 328 325 316 310 290 288 279 275 257 179 196 198 215 205 202 231 243 249 242 212 154 129 25 37 40 93 129 53 94 99 238 146 161 160 179 185 189 197 202
329 329 328 326 325 325 335 326 324 318 303 293 272 251 261 200 200 198 216 217 208 229 245 258 227 138 107 90 38 13 168 243 154 182 118 112 126 168 172 170 180 195 201 209 213
329 328 328 326 325 328 342 332 333 327 354 312 246 277 237 130 279 229 220 227 236 252 230 183 155 90 48 87 198 224 183 249 202 152 162 160 185 167 180 181 189 200 208 218 221
328 326 326 328 324 333 9 7 359 296 301 258 269 266 268 281 325 247 201 212 234 230 156 94 109 191 191 201 206 193 309 346 352 196 355 168 100 184 186 193 194 206 210 218 227
327 325 325 328 321 334 25 71 35 317 298 281 268 259 255 258 293 207 185 163 167 195 125 39 198 199 213 172 172 192 209 142 249 144 113 54 154 198 201 201 196 201 210 219 226
327 326 323 330 321 273 99 31 6 341 281 294 255 235 234 225 222 218 193 191 138 171 157 172 202 145 161 150 152 165 197 174 184 134 68 104 318 213 228 227 220 214 212 219 225
330 327 324 332 314 314 176 345 330 324 42 277 257 228 176 175 233 233 221 188 118 192 152 229 246 161 167 179 140 196 185 171 163 155 192 156 266 259 181 244 224 219 216 222 225
331 328 322 317 307 303 232 289 321 313 6 325 214 178 160 163 137 17 192 187 170 175 118 242 177 134 141 220 174 221 163 183 204 87 97 3 54 259 120 215 232 213 217 224 227
330 325 314 309 295 264 268 278 311 42 261 338 168 160 123 196 207 99 148 177 209 127 357 237 168 163 205 199 190 93 94 53 53 61 10 200 170 277 197 219 212 214 209 219 222
328 320 306 296 280 240 321 132 44 145 309 353 313 211 148 220 230 161 168 170 161 123 252 311 242 245 184 165 64 83 97 36 6 349 230 105 151 239 262 218 202 196 198 214 216
328 318 301 282 232 218 139 59 166 249 272 336 290 118 130 154 285 205 137 184 187 95 123 169 304 170 179 179 179 191 152 154 181 190 248 75 212 249 264 265 189 190 192 209 214
332 329 318 203 202 192 167 90 208 208 305 316 329 81 338 298 243 148 212 217 195 167 166 155 268 285 215 178 134 232 178 201 102 24 98 222 278 303 20 96 145 158 187 201 215
337 341 51 141 151 159 87 231 246 236 327 345 328 109 158 267 89 124 196 224 205 188 150 210 86 215 264 182 79 184 160 74 350 156 229 289 287 244 270 187 174 159 184 199 209
342 12 139 137 140 154 164 232 272 274 15 358 264 283 238 188 254 212 213 278 213 131 124 134 124 259 197 184 201 46 305 55 120 114 159 192 263 223 223 201 182 186 193 199 206
2 6 165 159 19 47 174 205 309 296 306 262 218 216 219 228 220 249 219 235 214 156 170 193 145 204 227 227 141 200 199 137 127 228 148 159 265 274 240 211 159 188 201 200 203
338 297 191 195 231 277 292 282 251 270 273 275 276 197 270 223 302 188 286 280 21 161 163 181 223 26 337 358 12 205 168 113 106 86 191 151 264 304 286 187 163 184 198 200 205
337 343 310 204 230 119 358 284 287 292 260 226 254 201 190 52 223 302 302 346 358 41 101 105 111 153 192 209 175 309 141 147 129 123 186 218 268 300 272 169 166 188 198 198 198
332 304 353 305 333 340 259 282 311 341 311 304 300 239 206 184 38 218 302 320 345 9 53 95 154 169 239 235 205 229 257 160 182 207 170 227 214 260 223 203 185 184 193 194 200
340 349 339 294 302 318 32 82 329 317 270 298 254 307 200 195 184 206 209 281 243 338 48 349 40 37 255 221 217 238 250 242 238 182 252 177 250 190 210 222 181 183 193 199 204
324 300 309 288 324 338 173 321 321 344 276 258 283 210 26 345 268 231 221 244 218 34 10 59 97 72 270 314 22 352 251 248 251 191 154 157 223 136 158 173 199 204 202 214 214
Height
1529 1527 1524 1522 1520 1518 1516 1513 1510 1508 1505 1503 1501 1500 1498 1497 1498 1498 1498 1498 1498 1497 1497 1497 1499 1497 1497 1496 1497 1499 1512 1519 1513 1513 1513 1515 1517 1522 1525 1527 1528 1529 1531 1535 1541
1528 1525 1523 1521 1519 1517 1515 1512 1509 1507 1504 1502 1500 1499 1496 1495 1496 1496 1497 1495 1497 1497 1497 1499 1498 1497 1496 1499 1500 1501 1514 1508 1500 1502 1508 1513 1516 1520 1526 1530 1531 1531 1534 1538 1542
1527 1524 1521 1519 1517 1515 1513 1511 1508 1505 1503 1501 1499 1498 1495 1494 1494 1493 1494 1494 1496 1496 1497 1499 1498 1498 1498 1500 1502 1502 1508 1500 1501 1500 1504 1512 1518 1521 1525 1531 1530 1529 1533 1539 1543
1526 1522 1519 1517 1515 1513 1511 1509 1506 1504 1501 1500 1498 1497 1495 1494 1499 1491 1491 1493 1495 1496 1496 1498 1498 1499 1502 1501 1501 1503 1498 1498 1501 1502 1507 1511 1516 1521 1522 1523 1527 1532 1534 1538 1542
1524 1521 1518 1515 1513 1510 1508 1506 1504 1501 1500 1498 1497 1496 1495 1494 1491 1491 1491 1492 1494 1496 1496 1497 1497 1496 1501 1501 1500 1500 1500 1500 1502 1504 1505 1510 1513 1517 1523 1523 1529 1534 1537 1539 1542
1522 1518 1515 1512 1510 1507 1505 1503 1501 1499 1497 1496 1496 1496 1495 1495 1489 1490 1492 1493 1495 1496 1496 1497 1498 1499 1500 1501 1502 1504 1502 1501 1504 1506 1509 1512 1517 1518 1526 1527 1531 1534 1537 1539 1540
1519 1516 1513 1510 1507 1504 1502 1500 1497 1496 1494 1493 1493 1493 1493 1489 1488 1489 1491 1494 1495 1496 1496 1497 1499 1500 1501 1502 1503 1504 1504 1502 1505 1507 1511 1514 1521 1520 1520 1525 1531 1534 1538 1540 1541
1517 1514 1511 1507 1504 1501 1500 1497 1494 1492 1491 1491 1491 1491 1488 1486 1486 1487 1490 1493 1496 1496 1496 1498 1500 1501 1502 1505 1506 1509 1511 1520 1510 1508 1511 1513 1529 1521 1523 1525 1533 1536 1539 1540 1542
1515 1512 1509 1505 1502 1499 1497 1495 1492 1490 1490 1489 1489 1489 1485 1484 1486 1488 1488 1490 1494 1495 1495 1497 1500 1501 1505 1510 1517 1518 1528 1521 1514 1508 1508 1513 1526 1523 1527 1528 1531 1535 1537 1538 1540
1514 1510 1507 1503 1500 1497 1495 1493 1490 1490 1489 1488 1488 1491 1484 1484 1484 1485 1486 1488 1491 1493 1494 1496 1498 1504 1511 1515 1538 1526 1528 1519 1517 1511 1509 1514 1519 1521 1524 1527 1529 1531 1533 1535 1536
1512 1508 1505 1502 1499 1496 1495 1492 1493 1491 1487 1485 1484 1483 1481 1482 1482 1482 1484 1486 1489 1492 1496 1494 1504 1514 1508 1504 1503 1507 1516 1516 1512 1508 1512 1515 1520 1520 1521 1524 1525 1527 1527 1529 1531
1509 1506 1503 1501 1497 1496 1496 1495 1498 1499 1486 1479 1477 1478 1477 1481 1485 1482 1484 1486 1488 1495 1494 1502 1510 1497 1497 1503 1506 1513 1518 1523 1512 1507 1512 1519 1521 1519 1517 1510 1513 1518 1521 1523 1526
1507 1503 1500 1498 1496 1496 1496 1496 1496 1495 1491 1473 1471 1471 1473 1478 1480 1480 1483 1483 1486 1492 1496 1505 1499 1496 1499 1505 1511 1517 1519 1520 1515 1510 1513 1518 1525 1516 1515 1520 1521 1518 1516 1520 1523
1505 1501 1498 1496 1498 1495 1496 1495 1495 1494 1502 1478 1469 1466 1469 1474 1476 1475 1479 1482 1485 1492 1495 1496 1489 1493 1500 1505 1506 1521 1505 1507 1510 1516 1534 1513 1547 1518 1514 1516 1513 1514 1514 1516 1519
1503 1499 1497 1495 1495 1495 1495 1494 1494 1494 1519 1469 1466 1465 1466 1470 1471 1471 1473 1479 1485 1487 1493 1494 1487 1491 1500 1496 1499 1505 1497 1505 1507 1522 1521 1526 1540 1506 1511 1512 1506 1506 1509 1511 1515
1501 1497 1494 1493 1492 1493 1493 1493 1494 1509 1515 1472 1464 1466 1468 1468 1469 1470 1473 1477 1479 1485 1488 1487 1484 1485 1488 1486 1489 1488 1504 1515 1522 1532 1550 1526 1531 1509 1506 1487 1493 1501 1503 1505 1509
1498 1495 1490 1490 1491 1491 1492 1493 1511 1519 1477 1474 1471 1466 1470 1471 1469 1470 1474 1479 1488 1504 1502 1491 1486 1480 1480 1489 1490 1495 1513 1556 1555 1557 1552 1526 1534 1499 1475 1477 1479 1484 1494 1497 1503
1493 1490 1486 1486 1487 1490 1492 1496 1513 1490 1485 1470 1469 1469 1475 1473 1471 1471 1475 1484 1478 1484 1507 1509 1510 1482 1474 1480 1491 1499 1502 1539 1551 1564 1540 1524 1534 1495 1469 1470 1471 1477 1484 1490 1494
1489 1485 1483 1483 1485 1489 1493 1511 1502 1493 1480 1478 1470 1475 1476 1469 1468 1470 1475 1479 1472 1475 1497 1508 1502 1474 1471 1470 1478 1495 1506 1494 1528 1536 1540 1529 1504 1477 1469 1470 1471 1474 1480 1484 1487
1488 1484 1483 1484 1486 1489 1494 1503 1492 1482 1479 1477 1481 1473 1480 1478 1475 1475 1478 1460 1465 1463 1464 1481 1496 1477 1471 1470 1473 1478 1483 1511 1524 1533 1538 1532 1518 1507 1477 1476 1472 1475 1474 1478 1483
1489 1485 1486 1486 1488 1490 1502 1500 1487 1480 1479 1480 1479 1478 1474 1474 1472 1474 1471 1460 1455 1460 1463 1477 1487 1486 1473 1478 1479 1486 1493 1504 1512 1522 1541 1543 1524 1474 1466 1464 1466 1470 1470 1472 1478
1490 1489 1488 1489 1491 1493 1496 1489 1483 1479 1477 1476 1473 1473 1468 1468 1471 1470 1470 1462 1448 1451 1467 1466 1486 1495 1483 1467 1466 1472 1480 1490 1519 1519 1529 1530 1514 1459 1455 1453 1460 1465 1465 1470 1474
1496 1491 1490 1490 1496 1495 1489 1485 1483 1480 1476 1473 1470 1464 1464 1465 1472 1466 1459 1448 1445 1448 1454 1460 1483 1506 1493 1479 1468 1471 1475 1486 1496 1507 1526 1523 1505 1456 1453 1452 1459 1459 1464 1467 1472
1500 1498 1488 1488 1488 1489 1491 1486 1482 1474 1472 1470 1466 1462 1463 1464 1464 1466 1461 1448 1447 1445 1444 1450 1478 1485 1505 1485 1475 1472 1467 1476 1485 1510 1513 1507 1481 1463 1454 1455 1455 1456 1460 1463 1467
1504 1500 1501 1496 1490 1491 1490 1486 1483 1481 1470 1467 1462 1461 1461 1468 1466 1466 1460 1454 1450 1448 1448 1453 1472 1473 1472 1468 1466 1465 1467 1474 1480 1476 1487 1476 1479 1458 1449 1448 1447 1451 1457 1463 1465
1506 1505 1500 1496 1492 1489 1489 1487 1486 1482 1477 1468 1466 1459 1457 1463 1461 1465 1460 1459 1459 1453 1454 1456 1474 1469 1470 1466 1464 1465 1461 1463 1462 1468 1462 1463 1464 1444 1443 1447 1449 1452 1455 1457 1461
1507 1506 1506 1495 1493 1492 1490 1489 1485 1483 1471 1467 1464 1461 1460 1456 1455 1454 1453 1454 1453 1456 1460 1463 1473 1484 1488 1474 1464 1476 1457 1452 1453 1452 1455 1467 1448 1441 1446 1442 1443 1447 1449 1451 1455